Weather reports worldwide

Advertisment
Waldmünchen, Germany (10782): temperature & dewpoint: 26.10.2020 02:00:00 - 01.11.2020 02:00:00 (CET)Waldmünchen, Germany (10782): temperature 5cm & temperature -5cm: 26.10.2020 02:00:00 - 01.11.2020 02:00:00 (CET)Waldmünchen, Germany (10782): temperature -20cm & temperature -100cm: 26.10.2020 02:00:00 - 01.11.2020 02:00:00 (CET)Waldmünchen, Germany (10782): wind speed & gusts: 26.10.2020 02:00:00 - 01.11.2020 02:00:00 (CET)Waldmünchen, Germany (10782): wind direction: 26.10.2020 02:00:00 - 01.11.2020 02:00:00 (CET)Waldmünchen, Germany (10782): reduced air pressure: 26.10.2020 02:00:00 - 01.11.2020 02:00:00 (CET)Waldmünchen, Germany (10782): visibility: 26.10.2020 02:00:00 - 01.11.2020 02:00:00 (CET)Waldmünchen, Germany (10782): sunshine duration: 26.10.2020 02:00:00 - 01.11.2020 02:00:00 (CET)Waldmünchen, Germany (10782): precipitation: 26.10.2020 02:00:00 - 01.11.2020 02:00:00 (CET)
Date & Time tt [°C] td [°C] tt 5cm [°C] tt -5cm [°C] tt -20cm [°C] tt -100cm [°C] ff [km/h] ff [kn] fx [km/h] fx [kn] dd ppp [hPa] vv [km] sd [min] rr [mm]
01.11.2020 02:00:00 3,0 3,0 2,0 5,5 9,1 11,2 3 2 9 5 ENE 1023,4 0,4 0 0,0
01.11.2020 01:00:00 2,8 2,8 1,9 5,8 9,3 11,2 6 3 11 6 W 1023,0 0,7 0 0,0
01.11.2020 00:00:00 3,6 3,6 2,7 6,2 9,5 11,2 5 3 10 6 E 1023,0 0,2 0 0,0
31.10.2020 23:00:00 3,6 3,6 3,0 6,7 9,8 11,2 4 2 7 4 WSW 1023,1 0,1 0 0,0
31.10.2020 22:00:00 4,7 4,7 3,0 7,3 10,0 11,2 3 2 7 4 ENE 1023,1 0,2 0 0,0
31.10.2020 21:00:00 5,3 5,3 4,7 7,6 10,2 11,2 4 2 6 3 E 1023,5 0,2 0 0,0
31.10.2020 20:00:00 6,2 6,1 4,5 8,2 10,4 11,2 4 2 7 4 NNE 1023,0 0,2 0 0,0
31.10.2020 19:00:00 8,3 7,7 5,5 9,5 10,4 11,2 0 0 9 5 N 1022,7 36 0 0,0
31.10.2020 18:00:00 10,4 8,5 9,7 10,7 10,5 11,2 3 1 14 7 ESE 1022,5 43 0 0,0
31.10.2020 17:00:00 10,7 8,5 10,5 11,1 10,4 11,2 8 4 14 8 SE 1022,5 68 0 0,0
31.10.2020 16:00:00 10,9 8,2 11,0 11,5 10,4 11,2 6 3 17 9 SE 1022,6 64 0 0,0
31.10.2020 15:00:00 11,1 8,6 11,4 11,9 10,2 11,2 6 3 14 7 SSE 1023,1 54 0 0,0
31.10.2020 14:00:00 11,1 8,7 11,4 12,1 10,1 11,2 9 5 17 9 S 1023,9 53 0 0,0
31.10.2020 13:00:00 11,5 8,8 12,1 12,4 9,9 11,2 5 3 15 8 SW 1024,2 61 0 0,0
31.10.2020 12:00:00 11,4 9,1 12,5 12,2 9,7 11,3 7 4 11 6 WSW 1024,8 46 0 0,0
31.10.2020 11:00:00 10,9 8,9 11,8 11,5 9,5 11,3 7 4 12 7 S 1025,6 41 0 0,0
31.10.2020 10:00:00 10,3 8,6 10,8 10,5 9,5 11,3 8 4 13 7 SSW 1025,8 44 0 0,0
31.10.2020 09:00:00 9,8 8,7 9,9 9,6 9,4 11,3 9 5 14 7 SSW 1026,2 32 0 0,0
31.10.2020 08:00:00 9,4 8,7 9,2 9,2 9,5 11,3 5 3 10 5 SW 1026,0 29 0 0,0
31.10.2020 07:00:00 9,3 8,7 8,9 9,2 9,5 11,3 6 3 18 10 S 1025,8 29 0 0,0
31.10.2020 06:00:00 9,2 8,7 9,0 9,3 9,5 11,3 16 9 19 11 WSW 1025,9 18 0 0,0
31.10.2020 05:00:00 9,5 9,0 9,1 9,3 9,5 11,3 8 4 13 7 SSW 1025,8 17 0 0,1
31.10.2020 04:00:00 9,4 9,1 9,1 9,4 9,5 11,3 8 5 14 8 SSW 1025,6 14 0 0,2
31.10.2020 03:00:00 9,5 9,3 9,3 9,4 9,5 11,3 11 6 17 9 SW 1025,6 6 0 0,2
31.10.2020 02:00:00 9,7 9,4 9,4 9,5 9,5 11,3 13 7 20 11 WSW 1025,6 6 0 0,1
31.10.2020 01:00:00 9,7 9,4 9,5 9,6 9,5 11,3 13 7 23 12 WSW 1025,4 8 0 0,1
31.10.2020 00:00:00 10,0 9,5 9,7 9,6 9,5 11,3 11 6 19 10 SW 1025,4 13 0 0,1
30.10.2020 23:00:00 10,3 9,5 9,8 9,6 9,4 11,3 14 8 26 14 SSW 1025,2 17 0 0,0
30.10.2020 22:00:00 10,3 9,6 9,8 9,7 9,4 11,3 13 7 23 12 SSW 1025,0 5 0 0,0
30.10.2020 21:00:00 10,6 9,4 10,3 9,7 9,4 11,3 14 8 24 13 S 1024,4 36 0 0,0
30.10.2020 20:00:00 10,7 9,5 10,3 9,8 9,4 11,3 16 8 24 13 SSW 1023,9 32 0 0,0
30.10.2020 19:00:00 10,6 9,7 10,1 9,8 9,4 11,3 15 8 29 16 SW 1023,4 20 0 0,0
30.10.2020 18:00:00 10,8 9,7 10,4 10,0 9,3 11,3 20 11 34 18 WSW 1023,0 45 0 0,0
30.10.2020 17:00:00 10,9 9,9 10,4 10,2 9,2 11,3 23 12 32 18 WSW 1022,5 27 0 0,0
30.10.2020 16:00:00 11,0 10,1 10,6 10,3 9,1 11,3 20 11 34 19 WSW 1022,4 61 0 0,0
30.10.2020 15:00:00 11,1 10,4 10,8 10,6 8,9 11,4 22 12 34 19 SW 1021,8 9 0 0,0
30.10.2020 14:00:00 11,2 10,4 11,1 10,5 8,8 11,4 20 11 30 16 WSW 1021,9 51 0 0,1
30.10.2020 13:00:00 11,0 10,2 10,8 10,0 8,7 11,4 19 10 30 16 WSW 1022,1 30 0 0,5
30.10.2020 12:00:00 10,6 10,1 10,4 9,6 8,5 11,4 18 10 27 15 SW 1022,0 18 0 0,2
30.10.2020 11:00:00 10,4 10,0 10,2 9,3 8,4 11,4 18 10 28 15 SW 1022,2 28 0 0,6
30.10.2020 10:00:00 10,0 9,7 9,9 9,0 8,3 11,4 19 10 30 16 SW 1022,0 3,6 0 0,7
30.10.2020 09:00:00 9,8 9,6 9,6 8,7 8,3 11,4 19 10 32 17 SW 1021,7 4,2 0 0,1
30.10.2020 08:00:00 9,5 9,3 9,3 8,4 8,2 11,4 18 10 29 16 SW 1021,2 6 0 0,2
30.10.2020 07:00:00 9,1 8,9 8,9 8,1 8,2 11,4 18 10 27 14 SW 1021,0 19 0 0,7
30.10.2020 06:00:00 8,7 8,5 8,5 7,9 8,1 11,4 17 9 26 14 SW 1020,9 3,6 0 1,0
30.10.2020 05:00:00 8,4 8,0 8,0 7,7 8,1 11,4 14 7 29 16 SSW 1020,9 3,0 0 1,3
30.10.2020 04:00:00 8,1 7,5 7,7 7,6 8,1 11,4 18 10 28 15 SSW 1021,0 10 0 0,6
30.10.2020 03:00:00 8,0 7,4 7,6 7,5 8,1 11,5 20 11 28 15 SSW 1021,5 3,7 0 0,2
30.10.2020 02:00:00 7,7 7,2 7,4 7,3 8,1 11,5 14 8 22 12 SSW 1021,8 8 0 0,5
30.10.2020 01:00:00 7,5 7,0 7,1 7,2 8,1 11,5 10 5 21 12 SSW 1022,3 14 0 0,5
30.10.2020 00:00:00 6,9 6,5 6,7 7,1 8,2 11,5 6 3 13 7 SSW 1022,9 13 0 0,3
29.10.2020 23:00:00 6,7 6,2 6,4 7,1 8,2 11,5 9 5 15 8 SSW 1023,2 9 0 0,4
29.10.2020 22:00:00 6,6 6,0 6,3 7,0 8,3 11,5 9 5 17 9 SSW 1023,3 15 0 0,3
29.10.2020 21:00:00 6,3 5,6 6,0 7,0 8,4 11,5 6 4 18 10 SSW 1023,2 15 0 0,6
29.10.2020 20:00:00 6,3 5,3 5,6 7,1 8,5 11,5 11 6 18 10 S 1022,6 28 0 0,1
29.10.2020 19:00:00 6,7 5,0 6,1 7,3 8,6 11,5 6 3 16 9 SSW 1022,4 71 0 0,0
29.10.2020 18:00:00 6,9 4,7 6,3 7,5 8,6 11,5 10 6 21 11 SSW 1021,9 75 0 0,0
29.10.2020 17:00:00 7,1 4,9 6,6 8,1 8,6 11,5 13 7 27 15 SW 1021,1 57 0 0,0
29.10.2020 16:00:00 7,8 5,5 7,2 9,0 8,5 11,5 21 12 32 17 SW 1020,3 63 1 0,0
29.10.2020 15:00:00 7,3 5,7 6,9 9,8 8,3 11,6 16 9 37 20 W 1020,2 70 4 2,7
29.10.2020 14:00:00 9,9 6,3 13,1 10,7 8,1 11,6 16 9 52 28 W 1018,9 63 34 0,0
29.10.2020 13:00:00 8,6 6,2 8,7 8,9 8,0 11,6 23 12 44 24 WSW 1018,7 61 1 0,0
29.10.2020 12:00:00 8,0 6,2 8,1 8,4 7,9 11,6 24 13 40 21 WSW 1018,4 75 0 0,0
29.10.2020 11:00:00 7,5 6,6 7,3 8,1 7,8 11,6 20 11 28 15 SSW 1018,2 33 0 0,3
29.10.2020 10:00:00 7,7 6,5 7,4 8,0 7,8 11,6 17 9 39 21 SW 1017,4 42 0 0,2
29.10.2020 09:00:00 8,7 7,5 8,0 7,8 7,7 11,6 28 15 40 22 SSW 1016,2 16 0 0,7
29.10.2020 08:00:00 8,8 8,0 8,3 7,6 7,6 11,6 18 10 32 17 SSW 1015,8 25 0 0,3
29.10.2020 07:00:00 9,0 7,7 8,4 7,5 7,5 11,6 20 11 43 23 SSW 1015,2 52 0 1,2
29.10.2020 06:00:00 8,4 7,9 8,1 7,3 7,5 11,6 14 7 38 21 WSW 1015,2 17 0 2,5
29.10.2020 05:00:00 8,4 7,8 7,9 7,1 7,4 11,6 17 9 31 17 S 1015,3 12 0 0,7
29.10.2020 04:00:00 8,5 7,5 7,8 6,9 7,3 11,7 15 8 29 16 S 1015,3 38 0 0,1
29.10.2020 03:00:00 8,1 7,1 7,5 6,7 7,3 11,7 17 9 31 17 S 1015,8 38 0 0,9
29.10.2020 02:00:00 8,5 7,1 7,5 6,2 7,3 11,7 18 10 27 14 S 1016,6 20 0 0,0
29.10.2020 01:00:00 7,9 6,8 6,8 5,7 7,4 11,7 4 2 9 5 S 1016,5 43 0 0,0
29.10.2020 00:00:00 7,4 6,8 5,9 5,5 7,5 11,7 3 1 10 5 NW 1016,7 28 0 0,0
28.10.2020 23:00:00 6,4 6,3 4,5 5,2 7,6 11,7 4 2 7 4 ENE 1017,2 11 0 0,0
28.10.2020 22:00:00 7,0 6,7 4,7 5,6 7,7 11,7 5 3 9 5 NE 1017,4 21 0 0,0
28.10.2020 21:00:00 7,1 6,4 4,7 6,5 7,7 11,7 4 2 27 14 W 1017,2 16 0 0,0
28.10.2020 20:00:00 8,0 7,0 7,0 7,0 7,7 11,7 5 3 15 8 WSW 1017,0 26 0 0,0
28.10.2020 19:00:00 7,5 6,8 6,9 7,2 7,6 11,7 7 4 11 6 W 1016,9 24 0 0,0
28.10.2020 18:00:00 7,8 6,9 7,4 7,5 7,5 11,7 7 4 13 7 WSW 1016,5 29 0 0,0
28.10.2020 17:00:00 7,9 7,0 7,3 7,9 7,4 11,7 8 5 17 9 SSE 1016,1 32 7 0,0
28.10.2020 16:00:00 8,0 6,8 8,2 8,0 7,2 11,7 3 1 19 11 W 1016,2 38 3 0,0
28.10.2020 15:00:00 7,3 6,7 7,2 7,4 7,1 11,8 11 6 21 12 S 1016,3 24 0 0,1
28.10.2020 14:00:00 6,8 6,3 6,8 7,2 7,0 11,8 9 5 13 7 S 1016,3 6 0 0,6
28.10.2020 13:00:00 6,2 5,7 6,3 7,0 6,8 11,8 9 5 15 8 S 1016,7 2,4 0 0,3
28.10.2020 12:00:00 6,1 5,3 6,2 6,8 6,6 11,8 12 6 23 12 SSE 1016,5 7 0 0,5
28.10.2020 11:00:00 6,0 4,3 6,1 6,3 6,5 11,8 13 7 24 13 S 1016,7 53 0 0,0
28.10.2020 10:00:00 6,3 3,8 6,7 5,7 6,4 11,8 9 5 22 12 S 1016,1 57 0 0,0
28.10.2020 09:00:00 5,7 3,4 5,6 4,9 6,4 11,8 11 6 25 13 S 1015,6 63 0 0,0
28.10.2020 08:00:00 5,2 2,6 5,0 4,1 6,4 11,8 15 8 27 15 SSE 1014,8 66 0 0,0
28.10.2020 07:00:00 4,7 2,6 4,0 3,3 6,5 11,8 16 9 26 14 S 1015,1 53 0 0,0
28.10.2020 06:00:00 4,1 2,5 2,7 2,7 6,7 11,8 10 6 21 11 SSW 1014,9 57 0 0,0
28.10.2020 05:00:00 3,9 2,3 2,0 2,5 6,9 11,8 10 6 20 11 SSW 1014,8 54 0 0,0
28.10.2020 04:00:00 3,2 2,0 0,5 2,6 7,1 11,8 5 3 12 7 W 1014,9 47 0 0,0
28.10.2020 03:00:00 3,6 2,4 1,2 2,9 7,3 11,8 4 2 14 8 SSE 1015,1 49 0 0,0
28.10.2020 02:00:00 4,2 2,8 2,0 3,2 7,5 11,8 11 6 20 11 SSE 1015,2 61 0 0,0
28.10.2020 01:00:00 3,7 2,7 1,7 3,7 7,7 11,8 7 4 21 11 WSW 1015,5 31 0 0,0
28.10.2020 00:00:00 4,6 3,3 2,2 4,2 7,9 11,8 8 4 20 11 S 1015,1 34 0 0,0
27.10.2020 23:00:00 5,2 4,0 3,5 4,6 8,1 11,8 6 3 22 12 SE 1015,1 38 0 0,0
27.10.2020 22:00:00 5,4 4,2 3,7 4,9 8,3 11,8 11 6 20 11 SSE 1015,2 31 0 0,0
27.10.2020 21:00:00 5,3 4,2 3,9 5,2 8,4 11,8 12 7 24 13 SSE 1015,3 28 0 0,0
27.10.2020 20:00:00 5,8 4,5 4,4 5,5 8,6 11,8 13 7 23 13 SSE 1014,9 37 0 0,0
27.10.2020 19:00:00 5,4 4,2 3,7 6,0 8,7 11,9 9 5 16 9 SSE 1015,0 41 0 0,0
27.10.2020 18:00:00 5,4 4,4 4,2 7,0 8,8 11,9 10 6 19 10 SSE 1014,9 31 0 0,0
27.10.2020 17:00:00 6,8 5,5 6,4 8,0 8,8 11,9 12 7 25 14 SSE 1014,3 37 0 0,0
27.10.2020 16:00:00 7,0 5,6 7,1 8,5 8,7 11,9 11 6 25 13 S 1014,1 43 0 0,0
27.10.2020 15:00:00 6,8 5,0 7,1 8,9 8,6 11,9 17 9 24 13 SSE 1013,9 48 0 0,0
27.10.2020 14:00:00 6,8 5,3 7,3 9,0 8,5 11,9 15 8 25 14 S 1013,9 39 0 0,0
27.10.2020 13:00:00 6,6 4,9 7,5 8,3 8,4 11,9 12 6 22 12 S 1013,9 46 0 0,0
27.10.2020 12:00:00 6,0 4,4 6,5 7,6 8,4 11,9 14 8 21 12 S 1014,0 43 0 0,0
27.10.2020 11:00:00 5,4 4,3 5,8 7,1 8,4 11,9 9 5 24 13 SSE 1014,1 27 0 0,0
27.10.2020 10:00:00 5,4 4,3 5,7 6,9 8,4 11,9 8 5 19 10 S 1013,6 27 0 0,0
27.10.2020 09:00:00 5,2 4,0 5,3 6,7 8,5 11,9 10 5 18 10 S 1013,5 20 0 0,0
27.10.2020 08:00:00 5,1 4,2 5,0 6,6 8,6 11,9 8 4 14 7 S 1013,0 18 0 0,0
27.10.2020 07:00:00 5,0 4,2 4,9 6,6 8,6 11,9 9 5 15 8 S 1012,6 15 0 0,0
27.10.2020 06:00:00 5,0 4,2 5,0 6,7 8,7 11,9 7 4 16 9 S 1012,1 17 0 0,0
27.10.2020 05:00:00 5,1 4,4 5,1 6,9 8,8 11,9 9 5 16 9 SSW 1011,6 17 0 0,0
27.10.2020 04:00:00 5,3 4,2 5,2 7,0 8,9 11,9 10 5 19 10 S 1011,4 16 0 0,0
27.10.2020 03:00:00 5,5 4,9 5,3 7,1 8,9 11,9 10 5 24 13 SSW 1011,2 14 0 0,0
27.10.2020 02:00:00 5,8 5,2 5,7 7,3 9,0 11,9 13 7 22 12 SSW 1011,1 20 0 0,0
27.10.2020 01:00:00 6,1 5,5 5,9 7,4 9,1 11,9 15 8 27 14 SSW 1010,5 18 0 0,1
27.10.2020 00:00:00 6,3 5,8 6,1 7,6 9,1 11,9 13 7 25 13 SSW 1010,3 12 0 0,5
26.10.2020 23:00:00 6,5 6,0 6,3 7,7 9,2 11,9 16 9 22 12 SW 1010,3 17 0 0,7
26.10.2020 22:00:00 6,9 6,3 6,6 7,9 9,3 11,9 12 7 19 10 SSW 1009,9 18 0 0,1
26.10.2020 21:00:00 6,8 6,4 6,4 8,0 9,3 11,9 7 4 13 7 SSW 1009,3 26 0 0,4
26.10.2020 20:00:00 7,0 6,7 6,8 8,1 9,4 11,9 5 3 20 11 SSW 1009,0 10 0 0,7
26.10.2020 19:00:00 7,3 6,9 7,1 8,3 9,4 11,9 11 6 18 10 SW 1008,7 16 0 0,1
26.10.2020 18:00:00 7,4 7,0 7,2 8,5 9,4 11,9 7 4 16 9 WSW 1007,6 11 0 0,5
26.10.2020 17:00:00 7,6 7,0 7,3 8,9 9,4 11,9 14 8 27 15 WSW 1007,4 19 0 0,9
26.10.2020 16:00:00 8,4 7,5 8,0 9,3 9,3 11,9 10 6 23 12 WSW 1006,3 35 0 0,3
26.10.2020 15:00:00 8,3 8,0 8,3 9,6 9,2 11,9 10 6 25 14 SW 1006,1 8 0 0,1
26.10.2020 14:00:00 8,4 7,9 8,4 9,7 9,1 11,9 16 9 26 14 WSW 1005,2 5 0 0,1
26.10.2020 13:00:00 8,5 8,0 8,6 10,1 8,9 11,9 11 6 16 9 SW 1004,8 2,6 0 0,0
26.10.2020 12:00:00 8,5 7,7 9,1 10,0 8,6 11,9 5 3 16 9 SSW 1004,5 5 0 0,0
26.10.2020 11:00:00 8,2 7,3 8,6 9,3 8,5 11,9 3 2 16 9 SSE 1004,4 12 0 0,0
26.10.2020 10:00:00 7,5 7,0 8,0 8,2 8,4 11,9 6 3 11 6 SW 1004,5 17 0 0,0
26.10.2020 09:00:00 6,6 6,2 6,8 7,2 8,4 11,9 4 2 11 6 SSE 1004,9 25 16 0,0
26.10.2020 08:00:00 7,0 6,5 6,5 5,7 8,5 11,9 9 5 17 9 NE 1003,3 5 6 0,0
26.10.2020 07:00:00 4,1 4,1 3,8 5,3 8,7 11,9 5 3 10 5 NE 1005,2 4,7 0 0,0
26.10.2020 06:00:00 3,7 3,7 3,5 5,2 8,8 11,9 6 3 11 6 E 1005,5 0,7 0 0,0
26.10.2020 05:00:00 3,6 3,6 3,0 5,0 9,0 11,9 4 2 8 4 SW 1005,9 1,2 0 0,0
26.10.2020 04:00:00 3,1 3,1 2,4 4,9 9,3 11,9 5 3 14 8 W 1006,5 0,2 0 0,0
26.10.2020 03:00:00 3,0 2,9 2,4 5,2 9,5 11,9 3 2 9 5 SW 1006,9 0,6 0 0,0
26.10.2020 02:00:00 3,4 3,3 2,9 5,6 9,8 11,9 5 3 16 9 ESE 1008,1 1,8 0 0,0

tt = temperature
td = dewpoint
tt 5cm = temperature 5cm
tt -5cm = temperature -5cm
tt -20cm = temperature -20cm
tt -100cm = temperature -100cm
ff = wind speed
fx = gusts
dd = wind direction
ppp = reduced air pressure
vv = visibility
sd = sunshine duration
rr = precipitation

Next stations